sat.trackr.live / text

‹ back to catalog

STARLINK-4010

NORAD 52862 · 2022-062AJ

PAYLOAD ACTIVE UNKNOWN

§ Identity

Operator
Country
US
Launch date
2022-06-17
Launch site
AFETR
Launch vehicle
Mass (kg)
RCS (m²)

Purposes: comms

External: N2YO · Heavens-Above · Gunter

§ Orbital elements

Epoch: 2026-09-20T04:06:59.709024Z

Period
93.85 min
Inclination
53.1598°
Eccentricity
0.0001341
Mean motion
15.34392985 rev/d
Perigee alt
461.8 km
Apogee alt
463.6 km
Semi-major
6,840.9 km
B*
6.0515e-5
RAAN
215.1450°
Arg perigee
92.4867°
Mean anomaly
267.6289°
Rev number
23,550

§ Raw data

STARLINK-40101 52862U 22062AJ  26263.17152441  .00001668  00000+0  60515-4 0  99902 52862  53.1598 215.1450 0001341  92.4867 267.6289 15.34392985235503

JSON: /api/v1/satellites/52862 · /tle

For live sub-satellite position, see the globe view (requires WebGL).

§ Visibility from observer

Set your observer location to see the next 7 days of passes ≥ 10°. The values pass through the URL so the page stays shareable.

No JS? Fill the form by hand. The geolocation button needs JavaScript.